Regional Weather Roundup
Issued by NWS Kansas City/Pleasant Hill, MO

Home | Current Version | Previous Version | Graphics & Text | Print | Product List | Glossary Off
Versions: 1 2 3 4 5 6 7 8 9 10 11 12 13 14 15 16 17 18 19 20 21 22 23 24 25 26 27 28 29 30 31 32 33 34 35 36 37 38 39 40 41 42 43 44 45 46 47 48 49 50

000
ASUS43 KEAX 280304
RWREAX

WEATHER ROUNDUP FOR EASTERN KANSAS AND NORTHWEST MISSOURI
NATIONAL WEATHER SERVICE KANSAS CITY/PLEASANT HILL MO
900 PM CST FRI FEB 27 2015

KSZ040-057-103>105-MOZ028-029-037-043-280400-
...KANSAS CITY METROPOLITAN AREA...

CITY           SKY/WX    TMP DP  RH WIND       PRES   REMARKS
K.C. INTL      MOCLDY    16   2  54 E8        30.54F WCI   5
K.C. DOWNTOWN  CLOUDY    18   4  54 E9        30.57S WCI   7
LEES SUMMIT    CLOUDY    17   3  54 E8        30.56R WCI   7
OLATHE - IXD   CLOUDY    18   4  54 E6        30.54S WCI  10
OLATHE - OJC   CLOUDY    18   2  49 E6        30.53S WCI  10
LAWRENCE       MOCLDY    15   2  56 E6        30.56S WCI   6

$$

MOZ001>008-011>017-020>025-030>033-038>040-044>046-053-054-280400-
...NORTHERN AND CENTRAL MISSOURI...

CITY           SKY/WX    TMP DP  RH WIND       PRES   REMARKS
ST. JOSEPH     MOCLDY    16   4  59 S7        30.57S WCI   6
MOSBY          CLOUDY    18   5  57 E6        30.58F WCI   9
WARRENSBURG    CLOUDY    19   5  53 NE3       30.58S
WHITEMAN AFB   CLOUDY    18   6  58 NE6       30.56S WCI  10
CLINTON        CLOUDY    23   5  46 E5        30.57S WCI  17
SEDALIA        CLOUDY    20   5  52 E6        30.59R WCI  12
WARSAW         NOT AVBL
MARSHALL       CLOUDY    19   7  58 NE6       30.60S WCI  11
CHILLICOTHE      N/A     14   3  61 CALM      30.61S
MOBERLY        CLEAR     14   1  57 E6        30.61S WCI   5
KIRKSVILLE     PTCLDY    10   2  69 E6        30.61R WCI   0

$$

MOZ041-047>049-056>058-063>065-088>090-097-280400-
...EASTERN AND SOUTHERN MISSOURI...

CITY           SKY/WX    TMP DP  RH WIND       PRES   REMARKS
ST. LOUIS INTL MOCLDY    16   2  54 E7        30.66S WCI   6
SPIRIT OF STL  CLOUDY    16   0  49 E9        30.65R WCI   4
COLUMBIA       CLOUDY    15   2  56 E10       30.59S WCI   2
JEFFERSON CITY CLOUDY    18   2  49 NE10      30.61S WCI   6
MEXICO         MOCLDY    14   7  73 NE3       30.61S
HANNIBAL       CLEAR      7  -6  56 NE3       30.64R
ROLLA          CLOUDY    19   2  47 NE6       30.53S WCI  11
LEBANON        CLOUDY    19   3  49 E3        30.52S
OSAGE BEACH    CLOUDY    19   3  49 NE3       30.56S
SPRINGFIELD    CLOUDY    19  11  70 S7        30.50S WCI  10
BRANSON        LGT SNOW  18  14  86 CALM      30.52R
NEVADA         CLOUDY    19   5  53 E6        30.56S WCI  11
JOPLIN         FLURRIES  19  13  77 SE5       30.53S WCI  12
WEST PLAINS    CLOUDY    20   5  52 E7        30.52R WCI  11

$$

IAZ060-094-KSZ022-034>040-054-083-096-NEZ052-066-093-280400-
...KANSAS...SOUTHEAST NEBRASKA AND IOWA...

CITY           SKY/WX    TMP DP  RH WIND       PRES   REMARKS
TOPEKA         PTCLDY    15   2  56 E6        30.55S WCI   6
MANHATTAN      CLEAR     15   5  64 CALM      30.52R
EMPORIA        CLOUDY    15  10  80 SE7       30.51S WCI   5
CHANUTE        CLOUDY    18  10  71 NE7       30.54R WCI   9
WICHITA        CLOUDY    16  10  77 E9        30.47S WCI   4
OMAHA          CLEAR     12   3  67 SE7       30.54S WCI   1
LINCOLN        MOCLDY    12   1  61 S8        30.50S WCI   0
FALLS CITY     CLEAR     13  -1  54 SE3       30.54S
LAMONI         CLEAR      8  -1  66 E6        30.56S WCI  -2
DES MOINES     CLEAR      9  -1  64 E5        30.59S WCI   1

$$




USA.gov is the U.S. government's official web portal to all federal, state and local government web resources and services.